EA3GKP-10 Weather Reports


time (UTC)temp
C
wind
direction
speed
KPH
gust
KPH
rain 1hr
cm
rain 24hr
cm
rain mn
cm
humidity
%
barometer
mb
20260902224901 22 359 0.0 0.0 0.00 0.00 0.00
20260902224355 22 359 0.0 0.0 0.00 0.00 0.00
20260902223850 23 359 0.0 0.0 0.00 0.00 0.00
20260902222843 23 267 0.0 0.0 0.00 0.00 0.00
20260902222338 22 267 0.0 0.0 0.00 0.00 0.00
20260902215937 22 263 3.2 0.0 0.00 0.00 0.00
20260902215315 22 263 3.2 0.0 0.00 0.00 0.00
20260902214309 23 343 9.7 0.0 0.00 0.00 0.00
20260902213803 22 323 3.2 0.0 0.00 0.00 0.00
20260902210236 22 359 3.2 0.0 0.00 0.00 0.00
20260902205729 22 270 4.8 0.0 0.00 0.00 0.00
20260902205224 23 298 16.1 12.9 0.00 0.00 0.00
20260902204720 23 25 16.1 9.7 0.00 0.00 0.00
20260902204216 23 23 16.1 6.4 0.00 0.00 0.00
20260902200649 22 285 11.3 12.9 0.00 0.00 0.00
20260902184556 24 224 9.7 16.1 0.00 0.00 0.00
20260902183549 25 305 16.1 16.1 0.00 0.00 0.00
20260902182037 26 321 16.1 9.7 0.00 0.00 0.00
20260902181533 26 283 11.3 12.9 0.00 0.00 0.00
20260902180528 26 291 14.5 14.5 0.00 0.00 0.00
20260902174513 27 288 6.4 4.8 0.00 0.00 0.00
20260902174011 27 291 9.7 11.3 0.00 0.00 0.00
20260902173504 27 32 8.0 4.8 0.00 0.00 0.00
20260902172457 27 278 8.0 14.5 0.00 0.00 0.00
20260902171957 27 323 8.0 4.8 0.00 0.00 0.00
20260902171449 27 300 14.5 9.7 0.00 0.00 0.00
20260902170944 27 346 4.8 14.5 0.00 0.00 0.00
20260902170439 27 298 16.1 12.9 0.00 0.00 0.00
20260902165936 27 233 12.9 12.9 0.00 0.00 0.00
20260902165431 27 315 11.3 6.4 0.00 0.00 0.00
20260902164925 28 349 11.3 4.8 0.00 0.00 0.00
20260902163414 28 253 8.0 1.6 0.00 0.00 0.00
20260902162914 27 330 6.4 9.7 0.00 0.00 0.00
20260902162407 27 356 14.5 9.7 0.00 0.00 0.00
20260902161909 27 325 8.0 12.9 0.00 0.00 0.00
20260902161356 27 281 12.9 11.3 0.00 0.00 0.00
20260902160345 27 300 14.5 9.7 0.00 0.00 0.00
20260902155842 27 245 12.9 20.9 0.00 0.00 0.00
20260902155337 27 271 12.9 14.5 0.00 0.00 0.00
20260902154330 27 242 14.5 20.9 0.00 0.00 0.00
20260902153828 27 239 11.3 24.1 0.00 0.00 0.00
20260902152313 28 298 8.0 11.3 0.00 0.00 0.00
20260902151810 28 256 9.7 32.2 0.00 0.00 0.00
20260902145753 28 240 12.9 8.0 0.00 0.00 0.00
20260902145249 27 266 11.3 9.7 0.00 0.00 0.00
20260902144744 27 280 12.9 14.5 0.00 0.00 0.00
20260902141220 28 271 14.5 20.9 0.00 0.00 0.00
20260902140213 29 103 6.4 3.2 0.00 0.00 0.00
20260902134907 28 308 9.7 9.7 0.00 0.00 0.00
20260902134702 28 308 9.7 9.7 0.00 0.00 0.00
20260902134200 28 269 14.5 12.9 0.00 0.00 0.00
20260902133154 27 319 6.4 4.8 0.00 0.00 0.00
20260902132646 27 285 16.1 11.3 0.00 0.00 0.00
20260902132142 28 281 11.3 14.5 0.00 0.00 0.00
20260902131639 28 311 4.8 12.9 0.00 0.00 0.00
20260902130128 28 93 4.8 1.6 0.00 0.00 0.00
20260902124018 28 1 8.0 4.8 0.00 0.00 0.00
20260902123611 28 1 8.0 4.8 0.00 0.00 0.00
20260902123109 29 190 4.8 6.4 0.00 0.00 0.00
20260902122605 28 242 4.8 6.4 0.00 0.00 0.00
20260902122059 29 70 6.4 4.8 0.00 0.00 0.00
20260902121050 28 349 9.7 3.2 0.00 0.00 0.00
20260902120545 28 11 4.8 6.4 0.00 0.00 0.00
20260902115035 28 266 3.2 11.3 0.00 0.00 0.00
20260902114026 27 39 4.8 4.8 0.00 0.00 0.00
20260902113521 27 321 6.4 9.7 0.00 0.00 0.00
20260902112513 27 276 6.4 8.0 0.00 0.00 0.00
20260902112008 28 305 3.2 6.4 0.00 0.00 0.00
20260902111504 27 23 6.4 4.8 0.00 0.00 0.00
20260902110456 27 28 4.8 11.3 0.00 0.00 0.00
20260902105949 27 273 6.4 1.6 0.00 0.00 0.00
20260902101415 27 60 3.2 3.2 0.00 0.00 0.00
20260902100408 26 31 11.3 9.7 0.00 0.00 0.00
20260902092337 25 86 8.0 6.4 0.00 0.00 0.00
20260902085425 25 340 6.4 9.7 0.00 0.00 0.00
20260902085315 25 340 6.4 9.7 0.00 0.00 0.00
20260902080745 24 6 8.0 1.6 0.00 0.00 0.00
20260902073721 23 23 8.0 3.2 0.00 0.00 0.00
20260902063630 22 311 0.0 0.0 0.00 0.00 0.00
20260902055558 22 359 0.0 0.0 0.00 0.00 0.00
20260902055054 22 359 0.0 0.0 0.00 0.00 0.00
20260902054551 22 304 0.0 0.0 0.00 0.00 0.00
20260902052533 22 252 3.2 0.0 0.00 0.00 0.00
20260902050513 22 325 0.0 0.0 0.00 0.00 0.00
20260902045006 22 325 0.0 0.0 0.00 0.00 0.00
20260902044458 22 325 0.0 0.0 0.00 0.00 0.00
20260902043452 22 325 0.0 0.0 0.00 0.00 0.00
20260902042447 22 325 0.0 0.0 0.00 0.00 0.00
20260902041945 22 325 0.0 0.0 0.00 0.00 0.00
20260902034920 22 319 0.0 0.0 0.00 0.00 0.00
20260902034414 22 319 0.0 0.0 0.00 0.00 0.00
20260902033406 22 319 0.0 0.0 0.00 0.00 0.00
20260902022812 22 304 8.0 4.8 0.00 0.00 0.00
20260902022306 22 333 4.8 1.6 0.00 0.00 0.00
20260902003642 23 270 0.0 0.0 0.00 0.00 0.00
20260902003139 23 270 0.0 0.0 0.00 0.00 0.00
20260902002133 23 270 0.0 0.0 0.00 0.00 0.00
20260902001121 23 270 0.0 0.0 0.00 0.00 0.00
20260902000618 23 270 0.0 0.0 0.00 0.00 0.00
20260901233555 22 270 0.0 0.0 0.00 0.00 0.00